{"data":{"norad_id":68904,"intl_designator":"2026-097K","name":"STARLINK-37528","alt_names":[],"object_type":"PAYLOAD","status":"ACTIVE","operator":null,"country":"US","launch_date":"2026-04-30","launch_site_code":"AFWTR","launch_vehicle":null,"mission":null,"orbit_class":"UNKNOWN","rcs_meters":null,"size_class":null,"mass_kg":null,"dimensions":null,"purposes":["comms"],"wikipedia_slug":null,"has_3d_model":false,"image_url":null,"decayed_at":null,"tle_current":{"epoch":"2026-09-19T23:27:10.580256Z","epoch_age_seconds":60782,"freshness":"FRESH","line1":"1 68904U 26097K   26262.97720579  .00012170  00000+0  37855-3 0  9996","line2":"2 68904  97.2847  97.1566 0000085 192.9538 167.1703 15.33455310 22010","mean_motion":15.3345531,"eccentricity":8.5e-6,"inclination_deg":97.2847,"raan_deg":97.1566,"arg_perigee_deg":192.9538,"mean_anomaly_deg":167.1703,"bstar":0.00037855,"rev_number":2201,"period_min":93.905573289906,"perigee_km":465.45432832296,"apogee_km":465.57067036445,"semimajor_km":6843.6494993437,"source":"CELESTRAK","updated_at":"2026-09-20T09:00:44.047616Z"}}}